Big Rapids, MI

11:59 PM EST on February 24, 2017 (GMT -0500)
Roben-Hood

Weather History for KRQB - September, 2013

Change the Weather History Date:

Sunday, September 1, 2013

  Actual Average Record
Temperature  
Mean Temperature 68 °F -  
Max Temperature 82 °F 76 °F 91 °F (1973)
Min Temperature 55 °F 52 °F 40 °F (1970)
Cooling Degree Days 4    
Growing Degree Days 18 (Base 50)    
Moisture  
Dew Point 62 °F    
Average Humidity 84    
Maximum Humidity 100    
Minimum Humidity 51    
Precipitation  
Precipitation 0.00 in - - ()
Sea Level Pressure  
Sea Level Pressure 29.79 in    
Wind  
Wind Speed 2 mph (SSW)    
Max Wind Speed 9 mph    
Max Gust Speed -    
Visibility 7 miles    
Events Fog    
Averages and records for this station are not official NWS values.
T = Trace of Precipitation, MM = Missing Value Source: NWS Daily Summary

Daily Weather History Graph

Daily Weather History Graph

Search for Another Location

Airport or City:

Trip Planner

Search our weather history database for the weather conditions in past years. The results will help you decide how hot, cold, wet, or windy it might be!

Date:

Astronomy

Sep. 01, 2013 Rise Set
Actual Time 7:05 AM EDT 8:17 PM EDT
Civil Twilight 6:36 AM EDT 8:46 PM EDT
Nautical Twilight 6:00 AM EDT 9:21 PM EDT
Astronomical Twilight 5:23 AM EDT 9:59 PM EDT
Moon 3:22 AM EDT (9/1) 5:57 PM EDT (9/1)
Length of Visible Light 14h 10m
Length of Day
13h 11m
Waning Crescent, 14% of the Moon is Illuminated
Sep 1
Waning Crescent
Sep 5
New
Sep 12
First Quarter
Sep 19
Full
Sep 26
Last Quarter

Hourly Weather History & Observations

Time (EDT) Temp. Heat Index Dew Point Humidity Pressure Visibility Wind Dir Wind Speed Gust Speed Precip Events Conditions
12:15 AM 61.0 °F - 61.0 °F 100% 29.88 in 5.0 mi Calm Calm - N/A   Clear
12:35 AM 61.5 °F - 61.3 °F 99% 29.87 in 5.0 mi Calm Calm - N/A   Clear
12:54 AM 59.9 °F - 59.9 °F 100% 29.87 in 7.0 mi Calm Calm - N/A   Clear
1:15 AM 60.8 °F - 60.4 °F 99% 29.87 in 5.0 mi Calm Calm - N/A   Clear
1:35 AM 59.5 °F - 59.4 °F 99% 29.87 in 5.0 mi Calm Calm - N/A   Clear
1:54 AM 59.9 °F - 59.9 °F 100% 29.86 in 5.0 mi Calm Calm - N/A   Clear
2:15 AM 59.2 °F - 59.2 °F 100% 29.86 in 5.0 mi Calm Calm - N/A   Clear
2:35 AM 59.4 °F - 59.4 °F 100% 29.84 in 5.0 mi Calm Calm - N/A   Clear
2:54 AM 59.5 °F - 59.5 °F 100% 29.84 in 5.0 mi Calm Calm - N/A   Clear
3:15 AM 58.3 °F - 58.3 °F 100% 29.84 in 7.0 mi Calm Calm - N/A   Clear
3:35 AM 58.5 °F - 58.5 °F 100% 29.83 in 5.0 mi Calm Calm - N/A   Clear
3:54 AM 57.6 °F - 57.6 °F 100% 29.84 in 5.0 mi WSW 3.5 mph - N/A   Clear
4:15 AM 57.9 °F - 57.9 °F 100% 29.84 in 5.0 mi Calm Calm - N/A   Clear
4:35 AM 56.5 °F - 56.5 °F 100% 29.83 in 5.0 mi SSW 5.8 mph - N/A   Scattered Clouds
4:54 AM 57.0 °F - 57.0 °F 100% 29.83 in 5.0 mi Calm Calm - N/A   Scattered Clouds
5:15 AM 56.3 °F - 56.3 °F 100% 29.83 in 5.0 mi Calm Calm - N/A   Mostly Cloudy
5:35 AM 55.9 °F - 55.9 °F 100% 29.83 in 7.0 mi Calm Calm - N/A   Overcast
5:54 AM 56.7 °F - 56.7 °F 100% 29.83 in 5.0 mi Calm Calm - N/A   Overcast
6:15 AM 55.8 °F - 55.8 °F 100% 29.81 in 0.2 mi East 3.5 mph - N/A Fog Fog
6:35 AM 56.8 °F - 56.8 °F 100% 29.81 in 0.2 mi SSW 5.8 mph - N/A Fog Fog
6:54 AM 57.4 °F - 57.4 °F 100% 29.81 in 0.2 mi Calm Calm - N/A Fog Fog
7:15 AM 57.6 °F - 57.6 °F 100% 29.81 in 0.2 mi Calm Calm - N/A Fog Fog
7:35 AM 58.1 °F - 58.1 °F 100% 29.82 in 0.2 mi Calm Calm - N/A Fog Fog
7:54 AM 58.1 °F - 58.1 °F 100% 29.80 in 0.2 mi Calm Calm - N/A Fog Fog
8:15 AM 59.2 °F - 59.2 °F 100% 29.81 in 0.2 mi Calm Calm - N/A Fog Fog
8:35 AM 60.1 °F - 60.1 °F 100% 29.81 in 0.2 mi Calm Calm - N/A Fog Fog
8:54 AM 60.8 °F - 60.8 °F 100% 29.82 in 0.2 mi Calm Calm - N/A Fog Fog
9:15 AM 61.7 °F - 61.7 °F 100% 29.82 in 0.2 mi ESE 3.5 mph - N/A Fog Fog
9:35 AM 62.1 °F - 62.1 °F 100% 29.82 in 0.5 mi Calm Calm - N/A Fog Fog
9:55 AM 63.1 °F - 63.1 °F 100% 29.81 in 2.0 mi SE 3.5 mph - N/A   Overcast
10:15 AM 64.6 °F - 64.6 °F 100% 29.81 in 5.0 mi SE 6.9 mph - N/A   Overcast
10:35 AM 65.3 °F - 65.3 °F 100% 29.82 in 7.0 mi SE 5.8 mph - N/A   Overcast
10:55 AM 66.0 °F - 66.0 °F 100% 29.82 in 7.0 mi East 3.5 mph - N/A   Overcast
11:15 AM 66.7 °F - 66.7 °F 100% 29.82 in 7.0 mi SE 4.6 mph - N/A   Overcast
11:34 AM 67.1 °F - 67.1 °F 100% 29.81 in 7.0 mi Calm Calm - N/A   Overcast
11:55 AM 68.2 °F - 67.5 °F 98% 29.81 in 10.0 mi Calm Calm - N/A   Overcast
12:15 PM 69.6 °F - 68.0 °F 95% 29.81 in 10.0 mi South 5.8 mph - N/A   Overcast
12:34 PM 70.9 °F - 68.0 °F 91% 29.79 in 10.0 mi South 5.8 mph - N/A   Overcast
12:55 PM 71.8 °F - 64.4 °F 77% 29.80 in 10.0 mi Calm Calm - N/A   Overcast
1:15 PM 72.7 °F - 64.9 °F 77% 29.79 in 10.0 mi South 8.1 mph - N/A   Overcast
1:34 PM 74.8 °F - 65.3 °F 72% 29.79 in 7.0 mi SSE 6.9 mph - N/A   Mostly Cloudy
1:55 PM 77.4 °F - 64.9 °F 65% 29.79 in 10.0 mi SSE 5.8 mph - N/A   Mostly Cloudy
2:15 PM 76.3 °F - 65.3 °F 69% 29.78 in 10.0 mi SE 6.9 mph - N/A   Mostly Cloudy
2:34 PM 79.3 °F - 66.0 °F 64% 29.77 in 10.0 mi South 6.9 mph - N/A   Overcast
2:55 PM 79.0 °F - 64.9 °F 62% 29.77 in 10.0 mi SE 6.9 mph - N/A   Mostly Cloudy
3:15 PM 79.9 °F - 64.0 °F 58% 29.76 in 10.0 mi South 5.8 mph - N/A   Mostly Cloudy
3:34 PM 79.0 °F - 63.9 °F 60% 29.76 in 10.0 mi SSE 4.6 mph - N/A   Mostly Cloudy
3:55 PM 80.6 °F 82.0 °F 63.7 °F 56% 29.75 in 10.0 mi SSE 8.1 mph - N/A   Mostly Cloudy
4:15 PM 80.6 °F 82.2 °F 64.2 °F 57% 29.74 in 10.0 mi South 6.9 mph - N/A   Mostly Cloudy
4:34 PM 81.0 °F 82.6 °F 64.4 °F 57% 29.74 in 10.0 mi South 4.6 mph - N/A   Mostly Cloudy
4:55 PM 82.2 °F 83.3 °F 62.8 °F 52% 29.74 in 10.0 mi WSW 5.8 mph - N/A   Scattered Clouds
5:15 PM 81.9 °F 82.9 °F 62.8 °F 52% 29.72 in 10.0 mi South 5.8 mph - N/A   Scattered Clouds
5:34 PM 81.1 °F 82.0 °F 61.7 °F 51% 29.72 in 10.0 mi SSW 5.8 mph - N/A   Scattered Clouds
5:55 PM 81.9 °F 83.1 °F 63.0 °F 53% 29.72 in 10.0 mi SW 6.9 mph - N/A   Scattered Clouds
6:15 PM 81.3 °F 82.7 °F 63.9 °F 55% 29.72 in 10.0 mi WSW 9.2 mph - N/A   Clear
6:34 PM 79.3 °F - 63.9 °F 59% 29.72 in 10.0 mi SW 5.8 mph - N/A   Scattered Clouds
6:55 PM 78.3 °F - 65.1 °F 64% 29.74 in 10.0 mi West 4.6 mph - N/A   Clear
7:15 PM 77.9 °F - 65.3 °F 65% 29.74 in 10.0 mi West 9.2 mph - N/A   Scattered Clouds
7:34 PM 76.6 °F - 65.3 °F 68% 29.73 in 10.0 mi WSW 6.9 mph - N/A   Scattered Clouds
7:55 PM 75.7 °F - 65.3 °F 70% 29.73 in 10.0 mi SW 6.9 mph - N/A   Clear
8:15 PM 75.2 °F - 65.3 °F 71% 29.73 in 10.0 mi WSW 5.8 mph - N/A   Mostly Cloudy
8:35 PM 74.3 °F - 65.5 °F 74% 29.74 in 10.0 mi West 5.8 mph - N/A   Scattered Clouds
8:55 PM 72.9 °F - 65.5 °F 78% 29.74 in 10.0 mi West 4.6 mph - N/A   Clear
9:15 PM 73.4 °F - 65.8 °F 77% 29.75 in 10.0 mi WNW 6.9 mph - N/A   Mostly Cloudy
9:35 PM 73.4 °F - 66.2 °F 78% 29.76 in 10.0 mi WNW 9.2 mph - N/A   Overcast
9:54 PM 72.9 °F - 66.2 °F 80% 29.76 in 10.0 mi WNW 6.9 mph - N/A   Overcast
10:15 PM 72.5 °F - 65.5 °F 79% 29.76 in 10.0 mi WNW 5.8 mph - N/A   Overcast
10:35 PM 72.7 °F - 64.4 °F 75% 29.77 in 10.0 mi WNW 5.8 mph - N/A   Overcast
10:54 PM 71.6 °F - 64.0 °F 77% 29.77 in 10.0 mi WNW 5.8 mph - N/A   Mostly Cloudy
11:15 PM 70.5 °F - 63.9 °F 79% 29.77 in 10.0 mi NW 4.6 mph - N/A   Mostly Cloudy
11:35 PM 70.0 °F - 64.0 °F 81% 29.77 in 10.0 mi NNW 5.8 mph - N/A   Mostly Cloudy
11:54 PM 70.0 °F - 64.8 °F 83% 29.78 in 10.0 mi NW 4.6 mph - N/A   Overcast